| time (UTC) | temp C | wind direction | speed KPH | gust KPH | rain 1hr cm | rain 24hr cm | rain mn cm | humidity % | barometer mb |
| 20260510230851 | 20 | 82 | 0.0 | 3.2 | 0.00 | 0.13 | 0.13 | 62 | 1021.7 |
| 20260510230346 | 20 | 102 | 0.0 | 4.8 | 0.00 | 0.13 | 0.13 | 60 | 1021.9 |
| 20260510225843 | 20 | 129 | 0.0 | 3.2 | 0.00 | 0.13 | 0.13 | 54 | 1022.2 |
| 20260510225339 | 20 | 24 | 0.0 | 1.6 | 0.00 | 0.13 | 0.13 | 59 | 1022.1 |
| 20260510224835 | 20 | 230 | 0.0 | 6.4 | 0.00 | 0.13 | 0.13 | 48 | 1022.1 |
| 20260510224332 | 20 | 113 | 0.0 | 3.2 | 0.00 | 0.13 | 0.13 | 53 | 1022.0 |
| 20260510223829 | 20 | 230 | 0.0 | 1.6 | 0.00 | 0.13 | 0.13 | 51 | 1022.1 |
| 20260510223326 | 21 | 50 | 0.0 | 1.6 | 0.00 | 0.13 | 0.13 | 56 | 1022.1 |
| 20260510222824 | 21 | 89 | 0.0 | 3.2 | 0.00 | 0.13 | 0.13 | 56 | 1022.1 |
| 20260510222320 | 20 | 155 | 0.0 | 1.6 | 0.00 | 0.13 | 0.13 | 50 | 1022.1 |
| 20260510221815 | 20 | 95 | 0.0 | 1.6 | 0.00 | 0.13 | 0.13 | 53 | 1022.1 |
| 20260510221312 | 21 | 161 | 0.0 | 3.2 | 0.00 | 0.13 | 0.13 | 46 | 1022.0 |
| 20260510220808 | 21 | 129 | 0.0 | 3.2 | 0.00 | 0.13 | 0.13 | 54 | 1021.9 |
| 20260510220304 | 20 | 55 | 0.0 | 3.2 | 0.00 | 0.13 | 0.13 | 55 | 1022.1 |
| 20260510215801 | 21 | 136 | 1.6 | 4.8 | 0.00 | 0.13 | 0.13 | 54 | 1022.1 |
| 20260510215259 | 21 | 123 | 3.2 | 3.2 | 0.00 | 0.13 | 0.13 | 45 | 1022.1 |
| 20260510214756 | 21 | 126 | 0.0 | 3.2 | 0.00 | 0.13 | 0.13 | 48 | 1022.3 |
| 20260510214253 | 21 | 269 | 0.0 | 0.0 | 0.00 | 0.13 | 0.13 | 46 | 1022.1 |
| 20260510213749 | 21 | 135 | 3.2 | 3.2 | 0.00 | 0.13 | 0.13 | 42 | 1022.2 |
| 20260510213247 | 21 | 129 | 0.0 | 6.4 | 0.00 | 0.13 | 0.13 | 44 | 1022.3 |
| 20260510212743 | 21 | 101 | 1.6 | 4.8 | 0.00 | 0.13 | 0.13 | 49 | 1022.2 |
| 20260510212240 | 21 | 142 | 0.0 | 3.2 | 0.00 | 0.13 | 0.13 | 47 | 1022.4 |
| 20260510211737 | 21 | 240 | 0.0 | 4.8 | 0.00 | 0.13 | 0.13 | 53 | 1022.3 |
| 20260510211232 | 21 | 238 | 0.0 | 6.4 | 0.00 | 0.13 | 0.13 | 45 | 1022.3 |
| 20260510210728 | 21 | 97 | 3.2 | 4.8 | 0.00 | 0.13 | 0.13 | 40 | 1022.4 |
| 20260510210223 | 22 | 228 | 0.0 | 4.8 | 0.00 | 0.13 | 0.13 | 41 | 1022.5 |
| 20260510205723 | 22 | 173 | 3.2 | 3.2 | 0.00 | 0.13 | 0.13 | 43 | 1022.3 |
| 20260510205218 | 22 | 136 | 3.2 | 6.4 | 0.00 | 0.13 | 0.13 | 39 | 1022.3 |
| 20260510204715 | 22 | 219 | 3.2 | 6.4 | 0.00 | 0.13 | 0.13 | 38 | 1022.4 |
| 20260510204212 | 22 | 236 | 1.6 | 4.8 | 0.00 | 0.13 | 0.13 | 35 | 1022.1 |
| 20260510203709 | 23 | 89 | 0.0 | 3.2 | 0.00 | 0.13 | 0.13 | 44 | 1022.2 |
| 20260510203206 | 22 | 253 | 0.0 | 3.2 | 0.00 | 0.13 | 0.13 | 49 | 1021.9 |
| 20260510202705 | 23 | 249 | 4.8 | 4.8 | 0.00 | 0.13 | 0.13 | 36 | 1022.2 |
| 20260510202200 | 23 | 256 | 1.6 | 4.8 | 0.00 | 0.13 | 0.13 | 40 | 1022.3 |
| 20260510201658 | 25 | 352 | 0.0 | 8.0 | 0.00 | 0.13 | 0.13 | 40 | 1022.0 |
| 20260510201155 | 24 | 95 | 3.2 | 4.8 | 0.00 | 0.13 | 0.13 | 43 | 1022.1 |
| 20260510200651 | 23 | 178 | 4.8 | 6.4 | 0.00 | 0.13 | 0.13 | 40 | 1022.2 |
| 20260510200149 | 22 | 62 | 0.0 | 8.0 | 0.00 | 0.13 | 0.13 | 38 | 1022.1 |
| 20260510195646 | 21 | 252 | 1.6 | 9.7 | 0.00 | 0.13 | 0.13 | 43 | 1022.0 |
| 20260510195142 | 23 | 265 | 3.2 | 6.4 | 0.00 | 0.13 | 0.13 | 40 | 1022.1 |
| 20260510194642 | 23 | 288 | 3.2 | 4.8 | 0.00 | 0.13 | 0.13 | 45 | 1022.4 |
| 20260510194138 | 23 | 333 | 3.2 | 3.2 | 0.00 | 0.13 | 0.13 | 36 | 1022.2 |
| 20260510193633 | 22 | 83 | 0.0 | 6.4 | 0.00 | 0.13 | 0.13 | 47 | 1022.2 |
| 20260510193129 | 21 | 218 | 0.0 | 1.6 | 0.00 | 0.13 | 0.13 | 48 | 1022.4 |
| 20260510192624 | 21 | 283 | 0.0 | 1.6 | 0.00 | 0.13 | 0.13 | 48 | 1022.4 |
| 20260510192120 | 21 | 181 | 0.0 | 3.2 | 0.00 | 0.13 | 0.13 | 46 | 1022.3 |
| 20260510191617 | 21 | 44 | 0.0 | 8.0 | 0.00 | 0.13 | 0.13 | 45 | 1022.4 |
| 20260510191113 | 21 | 133 | 0.0 | 4.8 | 0.00 | 0.13 | 0.13 | 42 | 1022.5 |
| 20260510190611 | 22 | 101 | 1.6 | 6.4 | 0.00 | 0.13 | 0.13 | 41 | 1022.4 |
| 20260510190108 | 22 | 101 | 0.0 | 8.0 | 0.00 | 0.13 | 0.13 | 40 | 1022.4 |
| 20260510185605 | 22 | 138 | 0.0 | 6.4 | 0.00 | 0.13 | 0.13 | 37 | 1022.3 |
| 20260510185102 | 21 | 173 | 8.0 | 8.0 | 0.00 | 0.13 | 0.13 | 40 | 1022.3 |
| 20260510184559 | 22 | 255 | 4.8 | 9.7 | 0.00 | 0.13 | 0.13 | 38 | 1022.3 |
| 20260510184055 | 22 | 186 | 0.0 | 4.8 | 0.00 | 0.13 | 0.13 | 41 | 1022.2 |
| 20260510183550 | 20 | 148 | 3.2 | 8.0 | 0.00 | 0.13 | 0.13 | 45 | 1022.3 |
| 20260510183046 | 20 | 124 | 3.2 | 8.0 | 0.00 | 0.13 | 0.13 | 50 | 1022.3 |
| 20260510182544 | 21 | 120 | 8.0 | 9.7 | 0.00 | 0.13 | 0.13 | 44 | 1022.0 |
| 20260510182038 | 21 | 230 | 0.0 | 4.8 | 0.00 | 0.13 | 0.13 | 49 | 1021.9 |
| 20260510181537 | 21 | 241 | 1.6 | 8.0 | 0.00 | 0.13 | 0.13 | 48 | 1021.9 |
| 20260510181033 | 21 | 113 | 0.0 | 3.2 | 0.00 | 0.13 | 0.13 | 43 | 1021.9 |
| 20260510180529 | 21 | 29 | 0.0 | 8.0 | 0.00 | 0.13 | 0.13 | 44 | 1021.9 |
| 20260510180027 | 21 | 156 | 0.0 | 9.7 | 0.00 | 0.13 | 0.13 | 44 | 1022.0 |
| 20260510175521 | 21 | 192 | 1.6 | 4.8 | 0.00 | 0.13 | 0.13 | 40 | 1021.9 |
| 20260510175013 | 21 | 171 | 3.2 | 8.0 | 0.00 | 0.13 | 0.13 | 37 | 1022.1 |
| 20260510174511 | 21 | 239 | 4.8 | 8.0 | 0.00 | 0.13 | 0.13 | 39 | 1021.9 |
| 20260510174007 | 21 | 189 | 0.0 | 12.9 | 0.00 | 0.13 | 0.13 | 42 | 1022.1 |
| 20260510173503 | 20 | 323 | 1.6 | 8.0 | 0.00 | 0.13 | 0.13 | 48 | 1022.2 |
| 20260510172959 | 20 | 139 | 3.2 | 6.4 | 0.00 | 0.13 | 0.13 | 52 | 1022.5 |
| 20260510172455 | 19 | 135 | 3.2 | 6.4 | 0.00 | 0.13 | 0.13 | 48 | 1022.4 |
| 20260510171951 | 18 | 190 | 4.8 | 9.7 | 0.00 | 0.13 | 0.13 | 48 | 1022.4 |
| 20260510171448 | 18 | 287 | 3.2 | 6.4 | 0.00 | 0.13 | 0.13 | 46 | 1022.3 |
| 20260510170945 | 18 | 292 | 1.6 | 8.0 | 0.00 | 0.13 | 0.13 | 55 | 1022.3 |
| 20260510170442 | 18 | 124 | 0.0 | 4.8 | 0.00 | 0.13 | 0.13 | 59 | 1022.3 |
| 20260510165937 | 18 | 24 | 3.2 | 8.0 | 0.00 | 0.13 | 0.13 | 60 | 1022.3 |
| 20260510165434 | 18 | 142 | 0.0 | 9.7 | 0.00 | 0.13 | 0.13 | 51 | 1022.2 |
| 20260510164931 | 18 | 38 | 0.0 | 3.2 | 0.00 | 0.13 | 0.13 | 57 | 1022.3 |
| 20260510164428 | 18 | 142 | 0.0 | 8.0 | 0.00 | 0.13 | 0.13 | 48 | 1022.3 |
| 20260510163923 | 19 | 132 | 3.2 | 4.8 | 0.00 | 0.13 | 0.13 | 51 | 1022.3 |
| 20260510163419 | 19 | 129 | 0.0 | 6.4 | 0.00 | 0.13 | 0.13 | 53 | 1022.5 |
| 20260510162914 | 19 | 187 | 0.0 | 4.8 | 0.00 | 0.13 | 0.13 | 48 | 1022.7 |
| 20260510162412 | 20 | 144 | 3.2 | 6.4 | 0.00 | 0.13 | 0.13 | 46 | 1022.6 |
| 20260510161907 | 20 | 153 | 6.4 | 12.9 | 0.00 | 0.13 | 0.13 | 46 | 1022.6 |
| 20260510161402 | 19 | 143 | 8.0 | 8.0 | 0.00 | 0.13 | 0.13 | 49 | 1022.6 |
| 20260510160859 | 18 | 322 | 3.2 | 4.8 | 0.00 | 0.13 | 0.13 | 54 | 1022.7 |
| 20260510160357 | 17 | 141 | 0.0 | 8.0 | 0.00 | 0.13 | 0.13 | 48 | 1022.5 |
| 20260510155850 | 17 | 138 | 3.2 | 6.4 | 0.00 | 0.13 | 0.13 | 56 | 1022.5 |
| 20260510155348 | 17 | 285 | 3.2 | 8.0 | 0.00 | 0.13 | 0.13 | 50 | 1022.4 |
| 20260510154843 | 17 | 246 | 1.6 | 4.8 | 0.00 | 0.13 | 0.13 | 58 | 1022.5 |
| 20260510154340 | 18 | 208 | 0.0 | 6.4 | 0.00 | 0.13 | 0.13 | 59 | 1022.3 |
| 20260510153834 | 18 | 138 | 4.8 | 8.0 | 0.00 | 0.13 | 0.13 | 62 | 1022.4 |
| 20260510153330 | 18 | 211 | 1.6 | 8.0 | 0.00 | 0.13 | 0.13 | 54 | 1021.9 |
| 20260510152827 | 18 | 189 | 4.8 | 6.4 | 0.00 | 0.13 | 0.13 | 47 | 1022.1 |
| 20260510152324 | 18 | 184 | 4.8 | 9.7 | 0.00 | 0.13 | 0.13 | 60 | 1022.0 |
| 20260510151820 | 18 | 282 | 3.2 | 9.7 | 0.00 | 0.13 | 0.13 | 55 | 1021.6 |
| 20260510151318 | 17 | 178 | 1.6 | 4.8 | 0.00 | 0.13 | 0.13 | 69 | 1021.8 |
| 20260510150814 | 16 | 147 | 0.0 | 4.8 | 0.00 | 0.13 | 0.13 | 73 | 1021.9 |
| 20260510150310 | 16 | 17 | 0.0 | 4.8 | 0.00 | 0.13 | 0.13 | 69 | 1021.8 |
| 20260510145806 | 16 | 148 | 0.0 | 3.2 | 0.00 | 0.13 | 0.13 | 73 | 1021.7 |
| 20260510145305 | 16 | 134 | 1.6 | 8.0 | 0.00 | 0.13 | 0.13 | 66 | 1021.7 |
| 20260510144759 | 17 | 117 | 3.2 | 8.0 | 0.00 | 0.13 | 0.13 | 65 | 1021.6 |
| 20260510144256 | 17 | 163 | 3.2 | 4.8 | 0.00 | 0.13 | 0.13 | 67 | 1021.6 |
| 20260510143755 | 16 | 142 | 0.0 | 4.8 | 0.00 | 0.13 | 0.13 | 70 | 1021.1 |
| 20260510143251 | 16 | 136 | 3.2 | 8.0 | 0.00 | 0.13 | 0.13 | 72 | 1021.3 |
| 20260510142748 | 16 | 145 | 1.6 | 4.8 | 0.00 | 0.13 | 0.13 | 78 | 1021.0 |
| 20260510142245 | 15 | 342 | 0.0 | 3.2 | 0.00 | 0.13 | 0.13 | 81 | 1021.1 |
| 20260510141742 | 15 | 291 | 0.0 | 3.2 | 0.00 | 0.13 | 0.13 | 82 | 1020.8 |
| 20260510141240 | 15 | 157 | 4.8 | 9.7 | 0.00 | 0.13 | 0.13 | 83 | 1020.6 |
| 20260510140737 | 14 | 23 | 1.6 | 4.8 | 0.00 | 0.13 | 0.13 | 87 | 1020.7 |
| 20260510140232 | 13 | 136 | 0.0 | 1.6 | 0.00 | 0.13 | 0.13 | 87 | 1020.8 |
| 20260510135726 | 13 | 224 | 0.0 | 4.8 | 0.00 | 0.13 | 0.13 | 84 | 1020.7 |
| 20260510135222 | 13 | 8 | 3.2 | 11.3 | 0.00 | 0.13 | 0.13 | 87 | 1020.9 |
| 20260510134720 | 13 | 158 | 4.8 | 4.8 | 0.00 | 0.13 | 0.13 | 92 | 1021.0 |
| 20260510134217 | 13 | 315 | 0.0 | 4.8 | 0.00 | 0.13 | 0.13 | 92 | 1020.9 |
| 20260510133713 | 13 | 66 | 0.0 | 3.2 | 0.00 | 0.13 | 0.13 | 92 | 1021.3 |
| 20260510133208 | 13 | 129 | 0.0 | 3.2 | 0.00 | 0.13 | 0.13 | 91 | 1020.9 |
| 20260510132705 | 12 | 64 | 1.6 | 3.2 | 0.00 | 0.13 | 0.13 | 92 | 1021.3 |
| 20260510132202 | 12 | 44 | 0.0 | 1.6 | 0.00 | 0.13 | 0.13 | 94 | 1020.9 |
| 20260510131700 | 12 | 93 | 0.0 | 3.2 | 0.00 | 0.13 | 0.13 | 95 | 1021.0 |
| 20260510131157 | 12 | 136 | 0.0 | 3.2 | 0.00 | 0.13 | 0.13 | 96 | 1020.8 |
| 20260510130653 | 12 | 113 | 0.0 | 3.2 | 0.00 | 0.13 | 0.13 | 97 | 1020.7 |
| 20260510130150 | 12 | 235 | 0.0 | 8.0 | 0.00 | 0.13 | 0.13 | 96 | 1020.6 |
| 20260510125646 | 12 | 122 | 0.0 | 4.8 | 0.00 | 0.13 | 0.13 | 97 | 1020.6 |
| 20260510125143 | 12 | 117 | 0.0 | 1.6 | 0.00 | 0.13 | 0.13 | 97 | 1020.4 |
| 20260510124640 | 12 | 133 | 3.2 | 3.2 | 0.00 | 0.13 | 0.13 | 97 | 1020.4 |
| 20260510124137 | 12 | 121 | 0.0 | 3.2 | 0.00 | 0.13 | 0.13 | 98 | 1020.3 |
| 20260510123632 | 12 | 87 | 0.0 | 3.2 | 0.00 | 0.13 | 0.13 | 98 | 1020.1 |
| 20260510123128 | 12 | 119 | 0.0 | 3.2 | 0.00 | 0.13 | 0.13 | 98 | 1020.2 |
| 20260510122624 | 12 | 61 | 0.0 | 3.2 | 0.00 | 0.13 | 0.13 | 98 | 1020.2 |
| 20260510122121 | 12 | 65 | 0.0 | 3.2 | 0.00 | 0.13 | 0.13 | 98 | 1020.0 |
| 20260510121618 | 12 | 74 | 1.6 | 3.2 | 0.00 | 0.13 | 0.13 | 99 | 1020.1 |
| 20260510121115 | 12 | 55 | 0.0 | 3.2 | 0.00 | 0.13 | 0.13 | 99 | 1020.0 |
| 20260510120613 | 12 | 50 | 0.0 | 3.2 | 0.00 | 0.13 | 0.13 | 99 | 1019.9 |
| 20260510120108 | 12 | 95 | 0.0 | 3.2 | 0.00 | 0.13 | 0.13 | 99 | 1019.9 |
| 20260510115605 | 12 | 104 | 1.6 | 3.2 | 0.00 | 0.13 | 0.13 | 99 | 1019.9 |
| 20260510115103 | 12 | 126 | 0.0 | 3.2 | 0.00 | 0.13 | 0.13 | 99 | 1019.4 |
| 20260510114558 | 12 | 129 | 1.6 | 3.2 | 0.00 | 0.13 | 0.13 | 99 | 1019.6 |
| 20260510114054 | 12 | 131 | 0.0 | 3.2 | 0.00 | 0.13 | 0.13 | 99 | 1019.3 |
| 20260510113549 | 12 | 122 | 1.6 | 4.8 | 0.00 | 0.13 | 0.13 | 99 | 1018.9 |
| 20260510113047 | 12 | 113 | 0.0 | 4.8 | 0.00 | 0.13 | 0.13 | 99 | 1018.7 |
| 20260510112544 | 12 | 132 | 4.8 | 4.8 | 0.00 | 0.13 | 0.13 | 99 | 1018.6 |
| 20260510112040 | 12 | 83 | 3.2 | 3.2 | 0.00 | 0.13 | 0.13 | 99 | 1018.7 |
| 20260510111537 | 12 | 130 | 0.0 | 4.8 | 0.00 | 0.13 | 0.13 | 99 | 1018.6 |
| 20260510111033 | 12 | 117 | 0.0 | 3.2 | 0.00 | 0.13 | 0.13 | 99 | 1018.4 |
| 20260510110529 | 12 | 116 | 3.2 | 3.2 | 0.00 | 0.13 | 0.13 | 99 | 1018.4 |
| 20260510110026 | 12 | 113 | 1.6 | 3.2 | 0.00 | 0.13 | 0.13 | 99 | 1018.1 |
| 20260510105520 | 12 | 138 | 3.2 | 4.8 | 0.00 | 0.13 | 0.13 | 99 | 1018.2 |
| 20260510105016 | 12 | 118 | 1.6 | 3.2 | 0.00 | 0.13 | 0.13 | 99 | 1018.1 |
| 20260510104513 | 12 | 109 | 1.6 | 3.2 | 0.00 | 0.13 | 0.13 | 99 | 1018.0 |
| 20260510104009 | 12 | 111 | 1.6 | 3.2 | 0.00 | 0.13 | 0.13 | 99 | 1018.0 |
| 20260510103507 | 12 | 103 | 0.0 | 3.2 | 0.00 | 0.13 | 0.13 | 99 | 1017.7 |
| 20260510103002 | 12 | 89 | 0.0 | 3.2 | 0.00 | 0.13 | 0.13 | 99 | 1018.0 |
| 20260510102458 | 12 | 124 | 0.0 | 0.0 | 0.00 | 0.13 | 0.13 | 99 | 1017.8 |
| 20260510101954 | 12 | 60 | 0.0 | 1.6 | 0.00 | 0.13 | 0.13 | 99 | 1017.7 |
| 20260510101452 | 12 | 102 | 0.0 | 3.2 | 0.00 | 0.13 | 0.13 | 98 | 1017.6 |
| 20260510100950 | 12 | 115 | 0.0 | 1.6 | 0.00 | 0.13 | 0.13 | 98 | 1017.5 |
| 20260510100446 | 12 | 122 | 1.6 | 3.2 | 0.00 | 0.13 | 0.13 | 98 | 1017.5 |
| 20260510095943 | 12 | 99 | 0.0 | 3.2 | 0.00 | 0.13 | 0.13 | 98 | 1017.4 |
| 20260510095439 | 13 | 89 | 0.0 | 1.6 | 0.00 | 0.13 | 0.13 | 98 | 1017.5 |
| 20260510094938 | 13 | 95 | 0.0 | 3.2 | 0.00 | 0.13 | 0.13 | 98 | 1017.3 |
| 20260510094433 | 13 | 89 | 0.0 | 1.6 | 0.00 | 0.13 | 0.13 | 98 | 1017.4 |
| 20260510093929 | 13 | 77 | 0.0 | 3.2 | 0.00 | 0.13 | 0.13 | 98 | 1017.3 |
| 20260510093424 | 13 | 129 | 0.0 | 1.6 | 0.00 | 0.13 | 0.13 | 98 | 1017.6 |
| 20260510092921 | 13 | 96 | 0.0 | 1.6 | 0.00 | 0.13 | 0.13 | 98 | 1017.5 |
| 20260510092418 | 13 | 129 | 0.0 | 0.0 | 0.00 | 0.13 | 0.13 | 98 | 1017.4 |
| 20260510091913 | 13 | 129 | 0.0 | 1.6 | 0.00 | 0.13 | 0.13 | 98 | 1017.5 |
| 20260510091410 | 13 | 113 | 0.0 | 1.6 | 0.00 | 0.13 | 0.13 | 98 | 1017.3 |
| 20260510090907 | 13 | 130 | 0.0 | 0.0 | 0.00 | 0.13 | 0.13 | 98 | 1017.3 |
| 20260510090403 | 13 | 135 | 0.0 | 3.2 | 0.00 | 0.13 | 0.13 | 98 | 1016.6 |
| 20260510085859 | 13 | 142 | 0.0 | 1.6 | 0.00 | 0.13 | 0.13 | 98 | 1016.8 |
| 20260510085353 | 13 | 44 | 0.0 | 1.6 | 0.00 | 0.13 | 0.13 | 98 | 1016.8 |
| 20260510084844 | 13 | 142 | 0.0 | 1.6 | 0.00 | 0.13 | 0.13 | 98 | 1016.7 |
| 20260510084342 | 13 | 160 | 0.0 | 0.0 | 0.00 | 0.13 | 0.13 | 98 | 1016.5 |
| 20260510083838 | 13 | 160 | 0.0 | 1.6 | 0.00 | 0.13 | 0.13 | 98 | 1016.4 |
| 20260510083334 | 13 | 49 | 0.0 | 0.0 | 0.00 | 0.13 | 0.13 | 98 | 1016.5 |
| 20260510082830 | 13 | 49 | 0.0 | 0.0 | 0.00 | 0.13 | 0.13 | 98 | 1016.3 |
| 20260510082327 | 13 | 49 | 0.0 | 1.6 | 0.00 | 0.13 | 0.13 | 98 | 1016.4 |
| 20260510081826 | 14 | 119 | 0.0 | 1.6 | 0.00 | 0.13 | 0.13 | 98 | 1016.3 |
| 20260510081317 | 14 | 76 | 0.0 | 0.0 | 0.00 | 0.13 | 0.13 | 98 | 1016.1 |
| 20260510080813 | 14 | 76 | 0.0 | 0.0 | 0.00 | 0.13 | 0.13 | 98 | 1015.9 |
| 20260510080307 | 14 | 89 | 0.0 | 1.6 | 0.00 | 0.13 | 0.13 | 98 | 1015.8 |
| 20260510075805 | 14 | 79 | 0.0 | 1.6 | 0.00 | 0.13 | 0.13 | 99 | 1015.9 |
| 20260510075305 | 14 | 74 | 1.6 | 3.2 | 0.00 | 0.13 | 0.13 | 99 | 1015.6 |
| 20260510074759 | 14 | 135 | 0.0 | 0.0 | 0.00 | 0.13 | 0.13 | 99 | 1015.9 |
| 20260510074256 | 14 | 44 | 0.0 | 0.0 | 0.00 | 0.13 | 0.13 | 99 | 1015.8 |
| 20260510073752 | 14 | 44 | 0.0 | 1.6 | 0.00 | 0.13 | 0.13 | 99 | 1015.9 |
| 20260510073248 | 14 | 37 | 0.0 | 1.6 | 0.00 | 0.13 | 0.13 | 99 | 1015.6 |
| 20260510072744 | 14 | 309 | 0.0 | 0.0 | 0.00 | 0.13 | 0.13 | 99 | 1015.5 |
| 20260510072241 | 15 | 269 | 0.0 | 1.6 | 0.00 | 0.13 | 0.13 | 99 | 1015.6 |
| 20260510071737 | 15 | 329 | 0.0 | 1.6 | 0.00 | 0.13 | 0.13 | 99 | 1015.2 |
| 20260510071234 | 15 | 129 | 0.0 | 0.0 | 0.00 | 0.13 | 0.13 | 99 | 1015.1 |
| 20260510070733 | 15 | 129 | 0.0 | 3.2 | 0.00 | 0.13 | 0.13 | 99 | 1015.1 |
| 20260510070229 | 15 | 89 | 0.0 | 0.0 | 0.00 | 0.13 | 0.13 | 99 | 1015.2 |
| 20260510065724 | 15 | 130 | 0.0 | 3.2 | 0.00 | 0.13 | 0.13 | 99 | 1014.9 |
| 20260510065221 | 15 | 129 | 0.0 | 1.6 | 0.00 | 0.13 | 0.13 | 99 | 1015.4 |
| 20260510064717 | 15 | 246 | 0.0 | 1.6 | 0.00 | 0.13 | 0.13 | 99 | 1015.2 |
| 20260510064215 | 15 | 129 | 0.0 | 1.6 | 0.00 | 0.13 | 0.13 | 99 | 1015.5 |
| 20260510063711 | 15 | 89 | 0.0 | 1.6 | 0.00 | 0.13 | 0.13 | 99 | 1015.4 |
| 20260510063207 | 15 | 256 | 0.0 | 0.0 | 0.00 | 0.13 | 0.13 | 99 | 1015.4 |
| 20260510062704 | 15 | 141 | 0.0 | 0.0 | 0.00 | 0.13 | 0.13 | 99 | 1015.6 |
| 20260510062201 | 15 | 23 | 0.0 | 3.2 | 0.00 | 0.13 | 0.13 | 99 | 1015.2 |
| 20260510061655 | 15 | 142 | 0.0 | 1.6 | 0.00 | 0.13 | 0.13 | 99 | 1015.1 |
| 20260510061153 | 15 | 113 | 1.6 | 3.2 | 0.00 | 0.13 | 0.13 | 99 | 1015.4 |
| 20260510060649 | 15 | 130 | 0.0 | 3.2 | 0.05 | 0.13 | 0.13 | 99 | 1015.1 |
| 20260510060146 | 15 | 252 | 0.0 | 3.2 | 0.30 | 0.13 | 0.13 | 99 | 1014.6 |
| 20260510055642 | 15 | 284 | 1.6 | 3.2 | 0.18 | 0.10 | 0.10 | 98 | 1014.2 |
| 20260510055140 | 15 | 141 | 3.2 | 4.8 | 0.18 | 0.08 | 0.08 | 98 | 1014.2 |
| 20260510054636 | 15 | 65 | 1.6 | 3.2 | 0.23 | 0.08 | 0.08 | 98 | 1014.1 |
| 20260510054132 | 15 | 50 | 3.2 | 4.8 | 0.05 | 0.05 | 0.05 | 98 | 1014.3 |
| 20260510053631 | 15 | 103 | 0.0 | 1.6 | 0.05 | 0.03 | 0.03 | 98 | 1014.8 |
| 20260510053128 | 15 | 235 | 0.0 | 0.0 | 0.05 | 0.03 | 0.03 | 98 | 1014.7 |
| 20260510052624 | 15 | 291 | 3.2 | 3.2 | 0.00 | 0.03 | 0.03 | 98 | 1014.6 |
| 20260510052120 | 15 | 68 | 0.0 | 4.8 | 0.05 | 0.03 | 0.03 | 97 | 1014.4 |
| 20260510051615 | 15 | 224 | 0.0 | 3.2 | 0.13 | 0.03 | 0.03 | 97 | 1014.5 |
| 20260510051112 | 15 | 126 | 1.6 | 3.2 | 0.05 | 0.00 | 0.00 | 97 | 1014.9 |
| 20260510050610 | 15 | 111 | 4.8 | 4.8 | 0.05 | 0.00 | 0.00 | 97 | 1014.6 |
| 20260510050107 | 15 | 290 | 0.0 | 1.6 | 0.05 | 0.00 | 0.00 | 97 | 1015.0 |
| 20260510045604 | 15 | 81 | 0.0 | 4.8 | 0.00 | 0.08 | 0.08 | 96 | 1015.2 |
| 20260510045100 | 15 | 108 | 1.6 | 4.8 | 0.13 | 0.08 | 0.08 | 96 | 1015.2 |
| 20260510044556 | 16 | 147 | 0.0 | 6.4 | 0.05 | 0.08 | 0.08 | 96 | 1015.1 |
| 20260510044054 | 16 | 150 | 0.0 | 4.8 | 0.00 | 0.05 | 0.05 | 95 | 1015.4 |
| 20260510043549 | 16 | 136 | 3.2 | 6.4 | 0.05 | 0.05 | 0.05 | 95 | 1015.2 |
| 20260510043045 | 16 | 165 | 0.0 | 6.4 | 0.05 | 0.05 | 0.05 | 95 | 1014.8 |
| 20260510042538 | 16 | 124 | 4.8 | 8.0 | 0.00 | 0.05 | 0.05 | 95 | 1014.7 |
| 20260510042033 | 16 | 151 | 8.0 | 8.0 | 0.00 | 0.05 | 0.05 | 95 | 1014.6 |
| 20260510041531 | 16 | 261 | 0.0 | 6.4 | 0.00 | 0.05 | 0.05 | 95 | 1014.3 |
| 20260510041029 | 16 | 105 | 3.2 | 8.0 | 0.05 | 0.05 | 0.05 | 94 | 1014.2 |
| 20260510040525 | 16 | 114 | 4.8 | 9.7 | 0.13 | 0.05 | 0.05 | 93 | 1014.7 |
| 20260510040021 | 16 | 134 | 8.0 | 14.5 | 0.13 | 0.05 | 0.05 | 92 | 1014.9 |
| 20260510035518 | 16 | 124 | 6.4 | 11.3 | 0.05 | 0.03 | 0.03 | 92 | 1014.9 |
| 20260510035017 | 16 | 27 | 3.2 | 11.3 | 0.00 | 0.03 | 0.03 | 90 | 1014.8 |
| 20260510034516 | 16 | 101 | 3.2 | 12.9 | 0.05 | 0.03 | 0.03 | 89 | 1014.8 |
| 20260510034012 | 17 | 172 | 4.8 | 14.5 | 0.13 | 0.03 | 0.03 | 88 | 1014.9 |
| 20260510033508 | 17 | 218 | 6.4 | 17.7 | 0.05 | 0.00 | 0.00 | 84 | 1014.4 |
| 20260510033007 | 18 | 130 | 12.9 | 17.7 | 0.00 | 0.00 | 0.00 | 77 | 1014.5 |
| 20260510032502 | 17 | 179 | 6.4 | 17.7 | 0.00 | 0.00 | 0.00 | 77 | 1014.3 |
| 20260510031957 | 17 | 267 | 4.8 | 4.8 | 0.00 | 0.00 | 0.00 | 81 | 1013.3 |
| 20260510031453 | 17 | 37 | 0.0 | 1.6 | 0.00 | 0.00 | 0.00 | 76 | 1012.7 |
| 20260510030949 | 17 | 155 | 1.6 | 3.2 | 0.00 | 0.00 | 0.00 | 75 | 1012.8 |
| 20260510030444 | 17 | 119 | 1.6 | 3.2 | 0.00 | 0.00 | 0.00 | 75 | 1012.8 |
| 20260510025942 | 18 | 126 | 0.0 | 3.2 | 0.00 | 0.00 | 0.00 | 73 | 1012.6 |
| 20260510025439 | 18 | 132 | 0.0 | 1.6 | 0.00 | 0.00 | 0.00 | 72 | 1012.5 |
| 20260510024937 | 18 | 98 | 0.0 | 3.2 | 0.00 | 0.00 | 0.00 | 72 | 1012.4 |
| 20260510024433 | 18 | 95 | 1.6 | 3.2 | 0.00 | 0.00 | 0.00 | 73 | 1012.2 |
| 20260510023929 | 18 | 106 | 0.0 | 3.2 | 0.00 | 0.00 | 0.00 | 71 | 1012.1 |
| 20260510023425 | 18 | 121 | 1.6 | 3.2 | 0.00 | 0.00 | 0.00 | 71 | 1012.2 |
| 20260510022923 | 18 | 119 | 0.0 | 3.2 | 0.00 | 0.00 | 0.00 | 72 | 1012.4 |
| 20260510022421 | 18 | 110 | 1.6 | 3.2 | 0.00 | 0.00 | 0.00 | 70 | 1012.4 |
| 20260510021920 | 18 | 126 | 0.0 | 3.2 | 0.00 | 0.00 | 0.00 | 69 | 1012.0 |
| 20260510021419 | 18 | 107 | 0.0 | 3.2 | 0.00 | 0.00 | 0.00 | 68 | 1012.2 |
| 20260510020915 | 18 | 78 | 0.0 | 3.2 | 0.00 | 0.00 | 0.00 | 69 | 1011.9 |
| 20260510020410 | 18 | 95 | 0.0 | 3.2 | 0.00 | 0.00 | 0.00 | 70 | 1011.9 |
| 20260510015906 | 18 | 103 | 3.2 | 3.2 | 0.00 | 0.00 | 0.00 | 69 | 1011.6 |
| 20260510015402 | 19 | 116 | 0.0 | 3.2 | 0.00 | 0.00 | 0.00 | 68 | 1011.4 |
| 20260510014857 | 19 | 97 | 1.6 | 3.2 | 0.00 | 0.00 | 0.00 | 68 | 1011.5 |
| 20260510014355 | 20 | 94 | 1.6 | 3.2 | 0.00 | 0.00 | 0.00 | 66 | 1011.4 |
| 20260510013851 | 20 | 104 | 1.6 | 3.2 | 0.00 | 0.00 | 0.00 | 65 | 1011.5 |
| 20260510013347 | 20 | 89 | 0.0 | 3.2 | 0.00 | 0.00 | 0.00 | 67 | 1011.5 |
| 20260510012847 | 21 | 95 | 1.6 | 3.2 | 0.00 | 0.00 | 0.00 | 65 | 1011.3 |
| 20260510012342 | 21 | 89 | 0.0 | 3.2 | 0.00 | 0.00 | 0.00 | 62 | 1011.4 |
| 20260510011837 | 21 | 116 | 0.0 | 3.2 | 0.00 | 0.00 | 0.00 | 61 | 1011.3 |
| 20260510011332 | 21 | 107 | 0.0 | 3.2 | 0.00 | 0.00 | 0.00 | 61 | 1011.2 |
| 20260510010829 | 21 | 97 | 1.6 | 3.2 | 0.00 | 0.00 | 0.00 | 60 | 1011.2 |
| 20260510010326 | 22 | 76 | 1.6 | 3.2 | 0.00 | 0.00 | 0.00 | 59 | 1011.3 |
| 20260510005823 | 22 | 100 | 0.0 | 3.2 | 0.00 | 0.00 | 0.00 | 56 | 1011.1 |
| 20260510005319 | 22 | 141 | 0.0 | 3.2 | 0.00 | 0.00 | 0.00 | 55 | 1011.1 |
| 20260510004817 | 23 | 95 | 0.0 | 3.2 | 0.00 | 0.00 | 0.00 | 54 | 1010.9 |
| 20260510004314 | 23 | 124 | 0.0 | 3.2 | 0.00 | 0.00 | 0.00 | 53 | 1010.9 |
| 20260510003812 | 23 | 144 | 0.0 | 3.2 | 0.00 | 0.00 | 0.00 | 53 | 1010.8 |
| 20260510003308 | 23 | 103 | 0.0 | 1.6 | 0.00 | 0.00 | 0.00 | 53 | 1010.8 |
| 20260510002807 | 23 | 154 | 0.0 | 1.6 | 0.00 | 0.00 | 0.00 | 52 | 1010.9 |
| 20260510002307 | 24 | 106 | 0.0 | 1.6 | 0.00 | 0.00 | 0.00 | 50 | 1010.9 |
| 20260510001801 | 25 | 147 | 0.0 | 1.6 | 0.00 | 0.00 | 0.00 | 50 | 1010.9 |
| 20260510001300 | 25 | 122 | 0.0 | 3.2 | 0.00 | 0.00 | 0.00 | 48 | 1010.7 |
| 20260510000754 | 25 | 62 | 0.0 | 1.6 | 0.00 | 0.00 | 0.00 | 46 | 1010.9 |
| 20260510000253 | 25 | 217 | 0.0 | 3.2 | 0.00 | 0.00 | 0.00 | 46 | 1010.6 |
| 20260509235750 | 26 | 142 | 0.0 | 1.6 | 0.00 | 0.00 | 0.00 | 45 | 1010.6 |
| 20260509235246 | 26 | 250 | 0.0 | 4.8 | 0.00 | 0.00 | 0.00 | 39 | 1010.7 |
| 20260509234742 | 26 | 129 | 0.0 | 1.6 | 0.00 | 0.00 | 0.00 | 41 | 1010.8 |
| 20260509234239 | 26 | 228 | 3.2 | 4.8 | 0.00 | 0.00 | 0.00 | 45 | 1010.7 |
| 20260509233737 | 26 | 269 | 0.0 | 1.6 | 0.00 | 0.00 | 0.00 | 41 | 1010.7 |
| 20260509233234 | 26 | 230 | 0.0 | 3.2 | 0.00 | 0.00 | 0.00 | 42 | 1010.4 |
| 20260509232730 | 26 | 357 | 1.6 | 4.8 | 0.00 | 0.00 | 0.00 | 40 | 1010.6 |
| 20260509232227 | 26 | 274 | 1.6 | 8.0 | 0.00 | 0.00 | 0.00 | 38 | 1010.6 |
| 20260509231724 | 26 | 281 | 1.6 | 6.4 | 0.00 | 0.00 | 0.00 | 42 | 1010.5 |
| 20260509231221 | 27 | 264 | 3.2 | 4.8 | 0.00 | 0.00 | 0.00 | 37 | 1010.4 |